Torna al catalogo

FENGYUN 1C DEB

AttivoSSO
NORAD 31312·DEBRIS·🇨🇳 China

Lanciato May 10, 1999 da Taiyuan Satellite Launch Center

Loading…

Prossimi Passaggi (prossime 24 ore)

TLE

AggiornatoSource: Space-Track

Epoca: Sep 14, 2026, 04:42 UTC

1 31312U 99025BPQ 26257.19632125  .00000351  00000-0  25867-3 0  9996
2 31312  98.8769 240.0839 0058592 188.7012 234.9282 14.01164144990038

Traccia FENGYUN 1C DEB in tempo reale con AllMySat

Download on the App Store